Time,TemperatureF,DewpointF,PressureIn,WindDirection,WindDirectionDegrees,WindSpeedMPH,WindSpeedGustMPH,Humidity,HourlyPrecipIn,Conditions,Clouds,dailyrainin,SoftwareType,DateUTC
2013-06-18 00:03:00,73.4,47.0,29.98,SE,135,11.4,11.4,39,0.00,,---,0.00,VWS V14.01,2013-06-18 06:03:00,
2013-06-18 00:08:00,73.3,46.9,29.99,ESE,112,10.7,11.6,39,0.00,,---,0.00,VWS V14.01,2013-06-18 06:08:00,
2013-06-18 00:13:00,73.3,46.9,29.98,East,90,17.2,17.2,39,0.00,,---,0.00,VWS V14.01,2013-06-18 06:13:00,
2013-06-18 00:18:00,73.1,47.4,29.99,ESE,112,12.1,12.1,40,0.00,,---,0.00,VWS V14.01,2013-06-18 06:18:00,
2013-06-18 00:23:00,73.1,48.0,29.98,SSE,158,7.6,7.6,41,0.00,,---,0.00,VWS V14.01,2013-06-18 06:23:00,
2013-06-18 00:28:00,72.9,48.5,29.99,ENE,68,7.4,7.4,42,0.00,,---,0.00,VWS V14.01,2013-06-18 06:28:00,
2013-06-18 00:33:00,72.7,48.3,29.99,SE,135,8.5,8.5,42,0.00,,---,0.00,VWS V14.01,2013-06-18 06:33:00,
2013-06-18 00:38:00,72.4,49.3,29.98,ESE,112,10.3,10.3,44,0.00,,---,0.00,VWS V14.01,2013-06-18 06:38:00,
2013-06-18 00:43:00,72.4,49.3,29.99,ENE,68,15.0,15.0,44,0.00,,---,0.00,VWS V14.01,2013-06-18 06:43:00,
2013-06-18 00:48:00,72.4,49.9,29.98,East,90,8.9,8.9,45,0.00,,---,0.00,VWS V14.01,2013-06-18 06:48:00,
2013-06-18 00:53:00,72.4,49.3,29.99,ENE,68,18.8,18.8,44,0.00,,---,0.00,VWS V14.01,2013-06-18 06:53:00,
2013-06-18 00:58:00,72.0,49.5,29.99,SE,135,6.3,6.3,45,0.00,,---,0.00,VWS V14.01,2013-06-18 06:58:00,
2013-06-18 01:03:00,71.6,49.2,30.01,ESE,112,9.8,9.8,45,0.00,,---,0.00,VWS V14.01,2013-06-18 07:03:00,
2013-06-18 01:08:00,71.6,49.2,30.00,SSW,202,8.7,8.7,45,0.00,,---,0.00,VWS V14.01,2013-06-18 07:08:00,
2013-06-18 01:13:00,71.5,49.1,29.99,ESE,112,14.3,14.3,45,0.00,,---,0.00,VWS V14.01,2013-06-18 07:13:00,
2013-06-18 01:18:00,71.5,48.5,30.00,SE,135,8.5,8.5,44,0.00,,---,0.00,VWS V14.01,2013-06-18 07:18:00,
2013-06-18 01:23:00,71.6,48.6,30.01,SE,135,12.3,12.3,44,0.00,,---,0.00,VWS V14.01,2013-06-18 07:23:00,
2013-06-18 01:28:00,71.3,48.9,29.99,ESE,112,10.7,10.7,45,0.00,,---,0.00,VWS V14.01,2013-06-18 07:28:00,
2013-06-18 01:33:00,70.7,48.9,30.01,ESE,112,15.9,15.9,46,0.00,,---,0.00,VWS V14.01,2013-06-18 07:33:00,
2013-06-18 01:38:00,70.6,49.4,30.00,ESE,112,11.4,11.4,47,0.00,,---,0.00,VWS V14.01,2013-06-18 07:38:00,
2013-06-18 01:43:00,70.2,49.6,30.00,SE,135,5.8,5.8,48,0.00,,---,0.00,VWS V14.01,2013-06-18 07:43:00,
2013-06-18 01:48:00,69.8,49.2,30.01,East,90,18.3,18.3,48,0.00,,---,0.00,VWS V14.01,2013-06-18 07:48:00,
2013-06-18 01:53:00,69.8,49.2,30.00,ESE,112,9.2,9.2,48,0.00,,---,0.00,VWS V14.01,2013-06-18 07:53:00,
2013-06-18 01:57:00,69.8,49.2,30.01,ENE,68,11.4,11.4,48,0.00,,---,0.00,VWS V14.01,2013-06-18 07:57:00,
2013-06-18 02:02:00,69.7,49.2,30.01,ESE,112,7.4,7.4,48,0.00,,---,0.00,VWS V14.01,2013-06-18 08:02:00,
2013-06-18 02:07:00,69.5,49.5,30.01,ESE,112,9.2,9.2,49,0.00,,---,0.00,VWS V14.01,2013-06-18 08:07:00,
2013-06-18 02:12:00,69.3,49.9,30.01,SSE,158,4.0,4.0,50,0.00,,---,0.00,VWS V14.01,2013-06-18 08:12:00,
2013-06-18 02:17:00,68.9,50.0,30.01,ESE,112,10.1,10.1,51,0.00,,---,0.00,VWS V14.01,2013-06-18 08:17:00,
2013-06-18 02:22:00,68.4,50.1,30.00,East,90,9.2,9.2,52,0.00,,---,0.00,VWS V14.01,2013-06-18 08:22:00,
2013-06-18 02:27:00,68.2,50.4,30.01,SSE,158,14.1,14.1,53,0.00,,---,0.00,VWS V14.01,2013-06-18 08:27:00,
2013-06-18 02:32:00,68.2,50.4,30.00,ESE,112,8.5,8.5,53,0.00,,---,0.00,VWS V14.01,2013-06-18 08:32:00,
2013-06-18 02:37:00,68.2,50.4,30.01,SW,225,6.3,6.3,53,0.00,,---,0.00,VWS V14.01,2013-06-18 08:37:00,
2013-06-18 02:42:00,68.0,50.8,30.01,ESE,112,10.5,10.5,54,0.00,,---,0.00,VWS V14.01,2013-06-18 08:42:00,
2013-06-18 02:47:00,67.9,50.7,30.01,SSE,158,6.0,6.0,54,0.00,,---,0.00,VWS V14.01,2013-06-18 08:47:00,
2013-06-18 02:52:00,67.7,50.5,30.02,ESE,112,9.6,9.6,54,0.00,,---,0.00,VWS V14.01,2013-06-18 08:52:00,
2013-06-18 02:57:00,67.5,50.8,30.01,ESE,112,14.3,14.3,55,0.00,,---,0.00,VWS V14.01,2013-06-18 08:57:00,
2013-06-18 03:02:00,67.3,50.6,30.02,SE,135,15.7,15.7,55,0.00,,---,0.00,VWS V14.01,2013-06-18 09:02:00,
2013-06-18 03:07:00,67.1,50.9,30.02,ESE,112,5.1,5.1,56,0.00,,---,0.00,VWS V14.01,2013-06-18 09:07:00,
2013-06-18 03:12:00,67.0,50.8,30.02,East,90,9.8,9.8,56,0.00,,---,0.00,VWS V14.01,2013-06-18 09:12:00,
2013-06-18 03:17:00,66.8,50.6,30.03,SSE,158,10.1,10.1,56,0.00,,---,0.00,VWS V14.01,2013-06-18 09:17:00,
2013-06-18 03:22:00,66.6,50.9,30.04,SE,135,8.1,8.1,57,0.00,,---,0.00,VWS V14.01,2013-06-18 09:22:00,
2013-06-18 03:27:00,66.6,50.4,30.03,East,90,11.6,11.6,56,0.00,,---,0.00,VWS V14.01,2013-06-18 09:27:00,
2013-06-18 03:32:00,66.6,50.4,30.03,SSE,158,17.2,17.2,56,0.00,,---,0.00,VWS V14.01,2013-06-18 09:32:00,
2013-06-18 03:37:00,66.4,50.2,30.03,East,90,11.4,11.4,56,0.00,,---,0.00,VWS V14.01,2013-06-18 09:37:00,
2013-06-18 03:42:00,66.2,50.1,30.03,ENE,68,7.6,7.6,56,0.00,,---,0.00,VWS V14.01,2013-06-18 09:42:00,
2013-06-18 03:47:00,66.4,50.2,30.04,ESE,112,7.8,7.8,56,0.00,,---,0.00,VWS V14.01,2013-06-18 09:47:00,
2013-06-18 03:52:00,66.2,50.1,30.03,SE,135,6.9,6.9,56,0.00,,---,0.00,VWS V14.01,2013-06-18 09:52:00,
2013-06-18 03:57:00,66.2,50.1,30.04,SE,135,9.8,9.8,56,0.00,,---,0.00,VWS V14.01,2013-06-18 09:57:00,
2013-06-18 04:02:00,65.9,49.8,30.04,ENE,68,13.6,13.6,56,0.00,,---,0.00,VWS V14.01,2013-06-18 10:02:00,
2013-06-18 04:07:00,65.7,49.6,30.04,ESE,112,7.6,7.6,56,0.00,,---,0.00,VWS V14.01,2013-06-18 10:07:00,
2013-06-18 04:12:00,65.5,49.9,30.04,ESE,112,11.6,11.6,57,0.00,,---,0.00,VWS V14.01,2013-06-18 10:12:00,
2013-06-18 04:17:00,65.5,49.9,30.04,ESE,112,3.8,3.8,57,0.00,,---,0.00,VWS V14.01,2013-06-18 10:17:00,
2013-06-18 04:22:00,65.7,50.1,30.05,ESE,112,4.5,4.5,57,0.00,,---,0.00,VWS V14.01,2013-06-18 10:22:00,
2013-06-18 04:27:00,65.5,49.9,30.04,SE,135,12.3,12.3,57,0.00,,---,0.00,VWS V14.01,2013-06-18 10:27:00,
2013-06-18 04:32:00,65.5,49.9,30.04,SSE,158,7.2,7.2,57,0.00,,---,0.00,VWS V14.01,2013-06-18 10:32:00,
2013-06-18 04:37:00,65.5,49.9,30.05,SE,135,5.6,5.6,57,0.00,,---,0.00,VWS V14.01,2013-06-18 10:37:00,
2013-06-18 04:42:00,65.5,49.9,30.04,ESE,112,4.9,4.9,57,0.00,,---,0.00,VWS V14.01,2013-06-18 10:42:00,
2013-06-18 04:47:00,65.3,49.7,30.04,South,180,5.6,5.6,57,0.00,,---,0.00,VWS V14.01,2013-06-18 10:47:00,
2013-06-18 04:52:00,65.2,49.6,30.05,East,90,11.6,11.6,57,0.00,,---,0.00,VWS V14.01,2013-06-18 10:52:00,
2013-06-18 04:57:00,65.0,49.9,30.04,ESE,112,10.5,10.5,58,0.00,,---,0.00,VWS V14.01,2013-06-18 10:57:00,
2013-06-18 05:02:00,64.6,49.5,30.05,ESE,112,5.1,5.1,58,0.00,,---,0.00,VWS V14.01,2013-06-18 11:02:00,
2013-06-18 05:07:00,64.6,49.5,30.04,East,90,10.3,10.3,58,0.00,,---,0.00,VWS V14.01,2013-06-18 11:07:00,
2013-06-18 05:12:00,64.6,49.5,30.04,SE,135,2.5,2.5,58,0.00,,---,0.00,VWS V14.01,2013-06-18 11:12:00,
2013-06-18 05:17:00,64.6,49.0,30.05,South,180,3.8,3.8,57,0.00,,---,0.00,VWS V14.01,2013-06-18 11:17:00,
2013-06-18 05:22:00,64.4,49.3,30.05,SSE,158,9.8,9.8,58,0.00,,---,0.00,VWS V14.01,2013-06-18 11:22:00,
2013-06-18 05:27:00,64.3,48.8,30.05,SE,135,7.8,7.8,57,0.00,,---,0.00,VWS V14.01,2013-06-18 11:27:00,
2013-06-18 05:32:00,64.1,49.0,30.05,ESE,112,10.5,10.5,58,0.00,,---,0.00,VWS V14.01,2013-06-18 11:32:00,
2013-06-18 05:37:00,64.3,49.7,30.05,ESE,112,4.7,4.7,59,0.00,,---,0.00,VWS V14.01,2013-06-18 11:37:00,
2013-06-18 05:42:00,64.3,49.2,30.06,ESE,112,12.1,12.1,58,0.00,,---,0.00,VWS V14.01,2013-06-18 11:42:00,
2013-06-18 05:47:00,64.1,49.5,30.06,ESE,112,6.9,6.9,59,0.00,,---,0.00,VWS V14.01,2013-06-18 11:47:00,
2013-06-18 05:52:00,64.1,49.5,30.07,SSE,158,6.3,6.3,59,0.00,,---,0.00,VWS V14.01,2013-06-18 11:52:00,
2013-06-18 05:57:00,64.1,50.0,30.06,ESE,112,7.4,7.4,60,0.00,,---,0.00,VWS V14.01,2013-06-18 11:57:00,
2013-06-18 06:02:00,64.1,49.5,30.07,South,180,15.9,15.9,59,0.00,,---,0.00,VWS V14.01,2013-06-18 12:02:00,
2013-06-18 06:07:00,64.1,49.5,30.06,ESE,112,7.8,7.8,59,0.00,,---,0.00,VWS V14.01,2013-06-18 12:07:00,
2013-06-18 06:12:00,64.1,49.5,30.08,East,90,11.6,11.6,59,0.00,,---,0.00,VWS V14.01,2013-06-18 12:12:00,
2013-06-18 06:17:00,64.1,49.5,30.07,SSE,158,15.2,15.2,59,0.00,,---,0.00,VWS V14.01,2013-06-18 12:17:00,
2013-06-18 06:22:00,64.1,50.0,30.07,ENE,68,12.1,12.1,60,0.00,,---,0.00,VWS V14.01,2013-06-18 12:22:00,
2013-06-18 06:27:00,64.1,50.0,30.07,SE,135,6.3,6.3,60,0.00,,---,0.00,VWS V14.01,2013-06-18 12:27:00,
2013-06-18 06:32:00,64.1,50.0,30.07,ESE,112,4.5,4.5,60,0.00,,---,0.00,VWS V14.01,2013-06-18 12:32:00,
2013-06-18 06:37:00,64.3,49.7,30.08,SE,135,9.4,9.4,59,0.00,,---,0.00,VWS V14.01,2013-06-18 12:37:00,
2013-06-18 06:42:00,64.4,49.8,30.08,SE,135,10.5,10.5,59,0.00,,---,0.00,VWS V14.01,2013-06-18 12:42:00,
2013-06-18 06:47:00,65.0,49.9,30.07,SE,135,12.1,12.1,58,0.00,,---,0.00,VWS V14.01,2013-06-18 12:47:00,
2013-06-18 06:52:00,65.5,49.9,30.08,ESE,112,6.9,6.9,57,0.00,,---,0.00,VWS V14.01,2013-06-18 12:52:00,
2013-06-18 06:57:00,65.9,49.8,30.08,South,180,4.7,4.7,56,0.00,,---,0.00,VWS V14.01,2013-06-18 12:57:00,
2013-06-18 07:02:00,65.9,49.8,30.08,ESE,112,4.5,4.5,56,0.00,,---,0.00,VWS V14.01,2013-06-18 13:02:00,
2013-06-18 07:07:00,65.7,49.6,30.08,SE,135,9.2,9.2,56,0.00,,---,0.00,VWS V14.01,2013-06-18 13:07:00,
2013-06-18 07:12:00,65.9,49.8,30.08,East,90,9.6,9.6,56,0.00,,---,0.00,VWS V14.01,2013-06-18 13:12:00,
2013-06-18 07:17:00,65.9,49.8,30.09,ESE,112,5.1,5.1,56,0.00,,---,0.00,VWS V14.01,2013-06-18 13:17:00,
2013-06-18 07:22:00,66.2,50.1,30.09,SE,135,4.0,4.0,56,0.00,,---,0.00,VWS V14.01,2013-06-18 13:22:00,
2013-06-18 07:27:00,66.2,50.1,30.09,SE,135,9.2,9.8,56,0.00,,---,0.00,VWS V14.01,2013-06-18 13:27:00,
2013-06-18 07:32:00,66.2,50.1,30.09,ESE,112,7.6,7.6,56,0.00,,---,0.00,VWS V14.01,2013-06-18 13:32:00,
2013-06-18 07:37:00,66.2,49.6,30.09,SE,135,7.8,7.8,55,0.00,,---,0.00,VWS V14.01,2013-06-18 13:37:00,
2013-06-18 07:42:00,66.4,50.2,30.09,East,90,13.4,13.4,56,0.00,,---,0.00,VWS V14.01,2013-06-18 13:42:00,
2013-06-18 07:47:00,66.4,49.8,30.09,ESE,112,10.7,10.7,55,0.00,,---,0.00,VWS V14.01,2013-06-18 13:47:00,
2013-06-18 07:52:00,66.6,50.0,30.09,ESE,112,10.5,10.5,55,0.00,,---,0.00,VWS V14.01,2013-06-18 13:52:00,
2013-06-18 07:57:00,66.8,50.1,30.09,SSE,158,12.1,12.1,55,0.00,,---,0.00,VWS V14.01,2013-06-18 13:57:00,
2013-06-18 08:02:00,67.1,49.9,30.10,SSE,158,4.0,4.0,54,0.00,,---,0.00,VWS V14.01,2013-06-18 14:02:00,
2013-06-18 08:07:00,67.3,50.1,30.09,ESE,112,4.9,4.9,54,0.00,,---,0.00,VWS V14.01,2013-06-18 14:07:00,
2013-06-18 08:12:00,67.5,50.3,30.09,ESE,112,5.1,5.1,54,0.00,,---,0.00,VWS V14.01,2013-06-18 14:12:00,
2013-06-18 08:17:00,67.9,50.2,30.10,ESE,112,10.1,10.1,53,0.00,,---,0.00,VWS V14.01,2013-06-18 14:17:00,
2013-06-18 08:22:00,68.0,50.2,30.10,SE,135,6.5,6.5,53,0.00,,---,0.00,VWS V14.01,2013-06-18 14:22:00,
2013-06-18 08:27:00,68.6,50.3,30.10,East,90,6.9,6.9,52,0.00,,---,0.00,VWS V14.01,2013-06-18 14:27:00,
2013-06-18 08:32:00,68.2,50.4,30.10,ESE,112,8.3,8.3,53,0.00,,---,0.00,VWS V14.01,2013-06-18 14:32:00,
2013-06-18 08:37:00,68.8,50.5,30.10,East,90,6.0,6.0,52,0.00,,---,0.00,VWS V14.01,2013-06-18 14:37:00,
2013-06-18 08:42:00,68.9,50.6,30.10,ESE,112,5.8,5.8,52,0.00,,---,0.00,VWS V14.01,2013-06-18 14:42:00,
2013-06-18 08:47:00,69.1,50.8,30.10,SSE,158,4.7,4.7,52,0.00,,---,0.00,VWS V14.01,2013-06-18 14:47:00,
2013-06-18 08:52:00,69.5,50.6,30.11,SE,135,7.6,7.6,51,0.00,,---,0.00,VWS V14.01,2013-06-18 14:52:00,
2013-06-18 08:57:00,69.5,51.1,30.11,SE,135,4.3,4.3,52,0.00,,---,0.00,VWS V14.01,2013-06-18 14:57:00,
2013-06-18 09:02:00,70.6,51.6,30.11,East,90,5.8,5.8,51,0.00,,---,0.00,VWS V14.01,2013-06-18 15:02:00,
2013-06-18 09:07:00,70.2,51.2,30.11,SE,135,9.8,9.8,51,0.00,,---,0.00,VWS V14.01,2013-06-18 15:07:00,
2013-06-18 09:12:00,70.2,51.2,30.11,ESE,112,6.9,6.9,51,0.00,,---,0.00,VWS V14.01,2013-06-18 15:12:00,
2013-06-18 09:17:00,70.4,51.4,30.11,ESE,112,11.4,11.4,51,0.00,,---,0.00,VWS V14.01,2013-06-18 15:17:00,
2013-06-18 09:22:00,70.2,51.2,30.11,East,90,5.8,5.8,51,0.00,,---,0.00,VWS V14.01,2013-06-18 15:22:00,
2013-06-18 09:27:00,70.6,51.6,30.11,ESE,112,3.6,3.6,51,0.00,,---,0.00,VWS V14.01,2013-06-18 15:27:00,
2013-06-18 09:32:00,70.7,51.2,30.11,SE,135,3.8,3.8,50,0.00,,---,0.00,VWS V14.01,2013-06-18 15:32:00,
2013-06-18 09:37:00,70.9,51.3,30.11,ESE,112,5.4,5.4,50,0.00,,---,0.00,VWS V14.01,2013-06-18 15:37:00,
2013-06-18 09:42:00,71.3,51.7,30.11,ESE,112,4.0,4.0,50,0.00,,---,0.00,VWS V14.01,2013-06-18 15:42:00,
2013-06-18 09:47:00,71.6,51.5,30.11,SSW,202,9.8,9.8,49,0.00,,---,0.00,VWS V14.01,2013-06-18 15:47:00,
2013-06-18 09:52:00,71.5,51.4,30.11,ESE,112,6.3,6.3,49,0.00,,---,0.00,VWS V14.01,2013-06-18 15:52:00,
2013-06-18 09:57:00,71.6,51.5,30.11,SE,135,2.7,2.7,49,0.00,,---,0.00,VWS V14.01,2013-06-18 15:57:00,
2013-06-18 10:02:00,71.8,51.1,30.11,ESE,112,9.8,9.8,48,0.00,,---,0.00,VWS V14.01,2013-06-18 16:02:00,
2013-06-18 10:07:00,72.4,51.6,30.11,SE,135,7.8,7.8,48,0.00,,---,0.00,VWS V14.01,2013-06-18 16:07:00,
2013-06-18 10:12:00,72.7,51.3,30.11,ESE,112,8.3,8.3,47,0.00,,---,0.00,VWS V14.01,2013-06-18 16:12:00,
2013-06-18 10:17:00,72.9,51.5,30.10,East,90,7.8,7.8,47,0.00,,---,0.00,VWS V14.01,2013-06-18 16:17:00,
2013-06-18 10:22:00,73.1,51.7,30.10,SSE,158,5.6,5.6,47,0.00,,---,0.00,VWS V14.01,2013-06-18 16:22:00,
2013-06-18 10:27:00,73.8,51.8,30.10,SE,135,5.1,5.1,46,0.00,,---,0.00,VWS V14.01,2013-06-18 16:27:00,
2013-06-18 10:32:00,73.8,51.8,30.10,NE,45,3.8,3.8,46,0.00,,---,0.00,VWS V14.01,2013-06-18 16:32:00,
2013-06-18 10:37:00,74.3,52.2,30.10,ESE,112,2.5,2.5,46,0.00,,---,0.00,VWS V14.01,2013-06-18 16:37:00,
2013-06-18 10:42:00,74.9,52.2,30.10,ESE,112,5.4,5.4,45,0.00,,---,0.00,VWS V14.01,2013-06-18 16:42:00,
2013-06-18 10:47:00,74.5,51.8,30.10,NE,45,7.4,7.4,45,0.00,,---,0.00,VWS V14.01,2013-06-18 16:47:00,
2013-06-18 10:52:00,74.5,51.8,30.10,NNE,22,3.4,3.4,45,0.00,,---,0.00,VWS V14.01,2013-06-18 16:52:00,
2013-06-18 10:57:00,75.2,51.8,30.10,SSE,158,4.3,4.3,44,0.00,,---,0.00,VWS V14.01,2013-06-18 16:57:00,
2013-06-18 11:02:00,75.2,51.2,30.10,East,90,4.3,4.3,43,0.00,,---,0.00,VWS V14.01,2013-06-18 17:02:00,
2013-06-18 11:07:00,76.0,51.3,30.10,ESE,112,6.5,6.5,42,0.00,,---,0.00,VWS V14.01,2013-06-18 17:07:00,
2013-06-18 11:12:00,76.7,51.9,30.10,NE,45,1.1,1.1,42,0.00,,---,0.00,VWS V14.01,2013-06-18 17:12:00,
2013-06-18 11:17:00,77.0,51.5,30.09,ESE,112,1.6,1.6,41,0.00,,---,0.00,VWS V14.01,2013-06-18 17:17:00,
2013-06-18 11:22:00,76.9,50.8,30.10,SE,135,3.4,3.4,40,0.00,,---,0.00,VWS V14.01,2013-06-18 17:22:00,
2013-06-18 11:27:00,77.0,50.9,30.09,ESE,112,4.7,4.7,40,0.00,,---,0.00,VWS V14.01,2013-06-18 17:27:00,
2013-06-18 11:32:00,78.3,29.9,30.09,ESE,112,4.7,4.7,17,0.00,,---,0.00,VWS V14.01,2013-06-18 17:32:00,
2013-06-18 11:37:00,84.1,-26.5,30.09,ESE,112,4.7,4.7,1,0.00,,---,0.00,VWS V14.01,2013-06-18 17:37:00,
2013-06-18 11:42:00,87.7,-24.3,30.08,ESE,112,4.7,4.7,1,0.00,,---,0.00,VWS V14.01,2013-06-18 17:42:00,
2013-06-18 11:47:00,79.4,46.2,30.08,ESE,112,4.7,4.7,31,0.00,,---,0.00,VWS V14.01,2013-06-18 17:47:00,
2013-06-18 11:52:00,79.2,49.2,30.08,ESE,112,4.7,4.7,35,0.00,,---,0.00,VWS V14.01,2013-06-18 17:52:00,
2013-06-18 11:57:00,78.8,50.4,30.07,ESE,112,4.7,4.7,37,0.00,,---,0.00,VWS V14.01,2013-06-18 17:57:00,
2013-06-18 12:02:00,79.0,50.5,30.08,ESE,112,4.7,4.7,37,0.00,,---,0.00,VWS V14.01,2013-06-18 18:02:00,
2013-06-18 12:07:00,78.8,50.4,30.07,ESE,112,4.7,4.7,37,0.00,,---,0.00,VWS V14.01,2013-06-18 18:07:00,
2013-06-18 12:12:00,79.6,50.3,30.07,ESE,112,4.7,4.7,36,0.00,,---,0.00,VWS V14.01,2013-06-18 18:12:00,
2013-06-18 12:17:00,79.9,49.8,30.07,ESE,112,4.7,4.7,35,0.00,,---,0.00,VWS V14.01,2013-06-18 18:17:00,
2013-06-18 12:22:00,79.6,49.6,30.06,ESE,112,4.7,4.7,35,0.00,,---,0.00,VWS V14.01,2013-06-18 18:22:00,
2013-06-18 12:27:00,79.6,49.6,30.06,ESE,112,4.7,4.7,35,0.00,,---,0.00,VWS V14.01,2013-06-18 18:27:00,
2013-06-18 12:32:00,80.1,49.2,30.07,ESE,112,4.7,4.7,34,0.00,,---,0.00,VWS V14.01,2013-06-18 18:32:00,
2013-06-18 12:37:00,80.6,49.7,30.07,ESE,112,4.7,4.7,34,0.00,,---,0.00,VWS V14.01,2013-06-18 18:37:00,
2013-06-18 12:42:00,80.6,49.7,30.06,ESE,112,4.7,4.7,34,0.00,,---,0.00,VWS V14.01,2013-06-18 18:42:00,
2013-06-18 12:47:00,81.2,49.4,30.06,ESE,112,4.7,4.7,33,0.00,,---,0.00,VWS V14.01,2013-06-18 18:47:00,
2013-06-18 12:52:00,81.2,49.4,30.06,ESE,112,4.7,4.7,33,0.00,,---,0.00,VWS V14.01,2013-06-18 18:52:00,
2013-06-18 12:57:00,85.9,-25.4,30.05,ESE,112,4.7,4.7,1,0.00,,---,0.00,VWS V14.01,2013-06-18 18:57:00,
2013-06-18 13:02:00,81.4,42.2,30.06,ESE,112,4.7,4.7,25,0.00,,---,0.00,VWS V14.01,2013-06-18 19:02:00,
2013-06-18 13:07:00,80.8,47.4,30.06,ESE,112,4.7,4.7,31,0.00,,---,0.00,VWS V14.01,2013-06-18 19:07:00,
2013-06-18 13:12:00,81.2,46.8,30.05,ESE,112,4.7,4.7,30,0.00,,---,0.00,VWS V14.01,2013-06-18 19:12:00,
2013-06-18 13:17:00,81.7,48.2,30.05,ESE,112,4.7,4.7,31,0.00,,---,0.00,VWS V14.01,2013-06-18 19:17:00,
2013-06-18 13:22:00,82.8,48.2,30.05,ESE,112,4.7,4.7,30,0.00,,---,0.00,VWS V14.01,2013-06-18 19:22:00,
2013-06-18 13:27:00,83.0,48.4,30.05,ESE,112,4.7,4.7,30,0.00,,---,0.00,VWS V14.01,2013-06-18 19:27:00,
2013-06-18 13:32:00,83.5,47.9,30.04,ESE,112,4.7,4.7,29,0.00,,---,0.00,VWS V14.01,2013-06-18 19:32:00,
2013-06-18 13:37:00,83.7,48.1,30.04,ESE,112,4.7,4.7,29,0.00,,---,0.00,VWS V14.01,2013-06-18 19:37:00,
2013-06-18 13:42:00,83.7,47.2,30.04,ESE,112,4.7,4.7,28,0.00,,---,0.00,VWS V14.01,2013-06-18 19:42:00,
2013-06-18 13:47:00,83.7,47.2,30.04,ESE,112,4.7,4.7,28,0.00,,---,0.00,VWS V14.01,2013-06-18 19:47:00,
2013-06-18 13:52:00,85.0,48.3,30.04,ESE,112,4.7,4.7,28,0.00,,---,0.00,VWS V14.01,2013-06-18 19:52:00,
2013-06-18 13:57:00,85.3,46.6,30.04,ESE,112,4.7,4.7,26,0.00,,---,0.00,VWS V14.01,2013-06-18 19:57:00,
2013-06-18 14:02:00,85.1,46.4,30.03,ESE,112,4.7,4.7,26,0.00,,---,0.00,VWS V14.01,2013-06-18 20:02:00,
2013-06-18 14:07:00,87.7,-24.3,30.03,ESE,112,4.7,4.7,1,0.00,,---,0.00,VWS V14.01,2013-06-18 20:07:00,
2013-06-18 14:12:00,90.7,-22.5,30.03,ESE,112,4.7,4.7,1,0.00,,---,0.00,VWS V14.01,2013-06-18 20:12:00,
2013-06-18 14:17:00,91.8,-21.9,30.02,ESE,112,4.7,4.7,1,0.00,,---,0.00,VWS V14.01,2013-06-18 20:17:00,
2013-06-18 14:22:00,85.7,42.5,30.02,ESE,112,4.7,4.7,22,0.00,,---,0.00,VWS V14.01,2013-06-18 20:22:00,
2013-06-18 14:27:00,85.3,39.7,30.02,ESE,112,4.7,4.7,20,0.00,,---,0.00,VWS V14.01,2013-06-18 20:27:00,
2013-06-18 14:32:00,85.5,38.6,30.02,ESE,112,4.7,4.7,19,0.00,,---,0.00,VWS V14.01,2013-06-18 20:32:00,
2013-06-18 14:37:00,85.5,38.6,30.02,ESE,112,4.7,4.7,19,0.00,,---,0.00,VWS V14.01,2013-06-18 20:37:00,
2013-06-18 14:42:00,84.8,39.3,30.01,ESE,112,4.7,4.7,20,0.00,,---,0.00,VWS V14.01,2013-06-18 20:42:00,
2013-06-18 14:47:00,84.8,41.8,30.01,ESE,112,4.7,4.7,22,0.00,,---,0.00,VWS V14.01,2013-06-18 20:47:00,
2013-06-18 14:52:00,85.1,42.0,30.01,ESE,112,4.7,4.7,22,0.00,,---,0.00,VWS V14.01,2013-06-18 20:52:00,
2013-06-18 14:57:00,86.0,42.8,30.01,ESE,112,4.7,4.7,22,0.00,,---,0.00,VWS V14.01,2013-06-18 20:57:00,
2013-06-18 15:02:00,86.8,43.4,30.01,ESE,112,4.7,4.7,22,0.00,,---,0.00,VWS V14.01,2013-06-18 21:02:00,
2013-06-18 15:07:00,87.1,38.5,30.01,ESE,112,4.7,4.7,18,0.00,,---,0.00,VWS V14.01,2013-06-18 21:07:00,
2013-06-18 15:12:00,87.1,39.9,30.00,ESE,112,4.7,4.7,19,0.00,,---,0.00,VWS V14.01,2013-06-18 21:12:00,
2013-06-18 15:17:00,87.7,40.4,30.00,ESE,112,4.7,4.7,19,0.00,,---,0.00,VWS V14.01,2013-06-18 21:17:00,
2013-06-18 15:22:00,100.6,-16.7,30.00,ESE,112,4.7,4.7,1,0.00,,---,0.00,VWS V14.01,2013-06-18 21:22:00,
2013-06-18 15:27:00,90.5,-22.7,30.00,ESE,112,4.7,4.7,1,0.00,,---,0.00,VWS V14.01,2013-06-18 21:27:00,
2013-06-18 15:32:00,91.8,-21.9,29.99,ESE,112,4.7,4.7,1,0.00,,---,0.00,VWS V14.01,2013-06-18 21:32:00,
2013-06-18 15:36:00,88.7,38.3,29.99,ESE,112,4.7,4.7,17,0.00,,---,0.00,VWS V14.01,2013-06-18 21:36:00,
2013-06-18 15:41:00,88.2,39.4,29.99,ESE,112,4.7,4.7,18,0.00,,---,0.00,VWS V14.01,2013-06-18 21:41:00,
2013-06-18 15:46:00,89.1,40.1,29.99,ESE,112,4.7,4.7,18,0.00,,---,0.00,VWS V14.01,2013-06-18 21:46:00,
2013-06-18 15:51:00,90.2,39.5,29.98,ESE,112,4.7,4.7,17,0.00,,---,0.00,VWS V14.01,2013-06-18 21:51:00,
2013-06-18 15:56:00,90.7,38.4,29.98,ESE,112,4.7,4.7,16,0.00,,---,0.00,VWS V14.01,2013-06-18 21:56:00,
2013-06-18 16:01:00,90.5,39.8,29.98,ESE,112,4.7,4.7,17,0.00,,---,0.00,VWS V14.01,2013-06-18 22:01:00,
2013-06-18 16:06:00,90.2,39.5,29.98,ESE,112,4.7,4.7,17,0.00,,---,0.00,VWS V14.01,2013-06-18 22:06:00,
2013-06-18 16:11:00,90.0,39.4,29.98,ESE,112,4.7,4.7,17,0.00,,---,0.00,VWS V14.01,2013-06-18 22:11:00,
2013-06-18 16:16:00,89.5,39.0,29.97,ESE,112,4.7,4.7,17,0.00,,---,0.00,VWS V14.01,2013-06-18 22:16:00,
2013-06-18 16:21:00,89.6,39.1,29.97,ESE,112,4.7,4.7,17,0.00,,---,0.00,VWS V14.01,2013-06-18 22:21:00,
2013-06-18 16:26:00,90.9,40.1,29.96,ESE,112,4.7,4.7,17,0.00,,---,0.00,VWS V14.01,2013-06-18 22:26:00,
2013-06-18 16:31:00,91.8,40.8,29.96,ESE,112,4.7,4.7,17,0.00,,---,0.00,VWS V14.01,2013-06-18 22:31:00,
2013-06-18 16:36:00,102.6,-15.5,29.96,ESE,112,4.7,4.7,1,0.00,,---,0.00,VWS V14.01,2013-06-18 22:36:00,
2013-06-18 16:41:00,92.9,-21.2,29.96,ESE,112,4.7,4.7,1,0.00,,---,0.00,VWS V14.01,2013-06-18 22:41:00,
2013-06-18 16:46:00,91.8,-21.9,29.96,ESE,112,4.7,4.7,1,0.00,,---,0.00,VWS V14.01,2013-06-18 22:46:00,
2013-06-18 16:51:00,89.5,35.8,29.96,ESE,112,4.7,4.7,15,0.00,,---,0.00,VWS V14.01,2013-06-18 22:51:00,
2013-06-18 16:56:00,90.7,38.4,29.95,ESE,112,4.7,4.7,16,0.00,,---,0.00,VWS V14.01,2013-06-18 22:56:00,
2013-06-18 17:01:00,91.4,39.0,29.95,ESE,112,4.7,4.7,16,0.00,,---,0.00,VWS V14.01,2013-06-18 23:01:00,
2013-06-18 17:06:00,92.7,38.3,29.94,ESE,112,4.7,4.7,15,0.00,,---,0.00,VWS V14.01,2013-06-18 23:06:00,
2013-06-18 17:11:00,93.6,39.0,29.94,ESE,112,4.7,4.7,15,0.00,,---,0.00,VWS V14.01,2013-06-18 23:11:00,
2013-06-18 17:16:00,92.9,38.5,29.93,ESE,112,4.7,4.7,15,0.00,,---,0.00,VWS V14.01,2013-06-18 23:16:00,
2013-06-18 17:21:00,92.5,38.2,29.93,ESE,112,4.7,4.7,15,0.00,,---,0.00,VWS V14.01,2013-06-18 23:21:00,
2013-06-18 17:26:00,91.4,39.0,29.93,ESE,112,4.7,4.7,16,0.00,,---,0.00,VWS V14.01,2013-06-18 23:26:00,
2013-06-18 17:31:00,90.7,38.4,29.93,ESE,112,4.7,4.7,16,0.00,,---,0.00,VWS V14.01,2013-06-18 23:31:00,
2013-06-18 17:36:00,91.1,38.7,29.93,ESE,112,4.7,4.7,16,0.00,,---,0.00,VWS V14.01,2013-06-18 23:36:00,
2013-06-18 17:41:00,91.8,39.3,29.92,ESE,112,4.7,4.7,16,0.00,,---,0.00,VWS V14.01,2013-06-18 23:41:00,
2013-06-18 17:46:00,91.8,39.3,29.92,ESE,112,4.7,4.7,16,0.00,,---,0.00,VWS V14.01,2013-06-18 23:46:00,
2013-06-18 17:51:00,92.2,-21.7,29.92,ESE,112,4.7,4.7,1,0.00,,---,0.00,VWS V14.01,2013-06-18 23:51:00,
2013-06-18 17:56:00,106.6,-13.2,29.92,ESE,112,4.7,4.7,1,0.00,,---,0.00,VWS V14.01,2013-06-18 23:56:00,
2013-06-18 18:01:00,125.6,-2.2,29.91,ESE,112,4.7,4.7,1,0.00,,---,0.00,VWS V14.01,2013-06-19 00:01:00,
2013-06-18 18:06:00,91.4,39.0,29.91,ESE,112,4.7,4.7,16,0.00,,---,0.00,VWS V14.01,2013-06-19 00:06:00,
2013-06-18 18:11:00,91.8,39.3,29.91,ESE,112,4.7,4.7,16,0.00,,---,0.00,VWS V14.01,2013-06-19 00:11:00,
2013-06-18 18:16:00,91.3,37.2,29.91,ESE,112,4.7,4.7,15,0.00,,---,0.00,VWS V14.01,2013-06-19 00:16:00,
2013-06-18 18:21:00,90.7,38.4,29.91,ESE,112,4.7,4.7,16,0.00,,---,0.00,VWS V14.01,2013-06-19 00:21:00,
2013-06-18 18:26:00,91.1,38.7,29.91,ESE,112,4.7,4.7,16,0.00,,---,0.00,VWS V14.01,2013-06-19 00:26:00,
2013-06-18 18:31:00,91.8,39.3,29.91,ESE,112,4.7,4.7,16,0.00,,---,0.00,VWS V14.01,2013-06-19 00:31:00,
2013-06-18 18:36:00,91.1,38.7,29.91,ESE,112,4.7,4.7,16,0.00,,---,0.00,VWS V14.01,2013-06-19 00:36:00,
2013-06-18 18:41:00,91.3,38.9,29.91,ESE,112,4.7,4.7,16,0.00,,---,0.00,VWS V14.01,2013-06-19 00:41:00,
2013-06-18 18:46:00,90.9,38.5,29.91,ESE,112,4.7,4.7,16,0.00,,---,0.00,VWS V14.01,2013-06-19 00:46:00,
2013-06-18 18:51:00,90.5,39.8,29.91,ESE,112,4.7,4.7,17,0.00,,---,0.00,VWS V14.01,2013-06-19 00:51:00,
2013-06-18 18:56:00,90.7,39.9,29.90,ESE,112,4.7,4.7,17,0.00,,---,0.00,VWS V14.01,2013-06-19 00:56:00,
2013-06-18 19:01:00,90.7,39.9,29.90,ESE,112,4.7,4.7,17,0.00,,---,0.00,VWS V14.01,2013-06-19 01:01:00,
2013-06-18 19:06:00,91.1,15.0,29.90,ESE,112,4.7,4.7,6,0.00,,---,0.00,VWS V14.01,2013-06-19 01:06:00,
2013-06-18 19:11:00,91.4,-22.1,29.90,ESE,112,4.7,4.7,1,0.00,,---,0.00,VWS V14.01,2013-06-19 01:11:00,
2013-06-18 19:16:00,95.9,-19.5,29.90,ESE,112,4.7,4.7,1,0.00,,---,0.00,VWS V14.01,2013-06-19 01:16:00,
2013-06-18 19:21:00,90.4,36.5,29.90,ESE,112,4.7,4.7,15,0.00,,---,0.00,VWS V14.01,2013-06-19 01:21:00,
2013-06-18 19:26:00,90.2,38.0,29.90,ESE,112,4.7,4.7,16,0.00,,---,0.00,VWS V14.01,2013-06-19 01:26:00,
2013-06-18 19:31:00,90.0,37.8,29.90,ESE,112,4.7,4.7,16,0.00,,---,0.00,VWS V14.01,2013-06-19 01:31:00,
2013-06-18 19:36:00,89.8,37.7,29.90,ESE,112,4.7,4.7,16,0.00,,---,0.00,VWS V14.01,2013-06-19 01:36:00,
2013-06-18 19:41:00,89.3,37.3,29.90,ESE,112,4.7,4.7,16,0.00,,---,0.00,VWS V14.01,2013-06-19 01:41:00,
2013-06-18 19:46:00,89.1,37.1,29.90,ESE,112,4.7,4.7,16,0.00,,---,0.00,VWS V14.01,2013-06-19 01:46:00,
2013-06-18 19:51:00,88.7,38.3,29.90,ESE,112,4.7,4.7,17,0.00,,---,0.00,VWS V14.01,2013-06-19 01:51:00,
2013-06-18 19:56:00,88.4,36.5,29.90,ESE,112,4.7,4.7,16,0.00,,---,0.00,VWS V14.01,2013-06-19 01:56:00,
2013-06-18 20:01:00,88.2,37.9,29.90,ESE,112,4.7,4.7,17,0.00,,---,0.00,VWS V14.01,2013-06-19 02:01:00,
2013-06-18 20:06:00,88.0,36.2,29.90,ESE,112,4.7,4.7,16,0.00,,---,0.00,VWS V14.01,2013-06-19 02:06:00,
2013-06-18 20:11:00,87.7,36.0,29.90,ESE,112,4.7,4.7,16,0.00,,---,0.00,VWS V14.01,2013-06-19 02:11:00,
2013-06-18 20:16:00,87.5,35.8,29.90,ESE,112,4.7,4.7,16,0.00,,---,0.00,VWS V14.01,2013-06-19 02:16:00,
2013-06-18 20:21:00,87.5,37.4,29.90,ESE,112,4.7,4.7,17,0.00,,---,0.00,VWS V14.01,2013-06-19 02:21:00,
2013-06-18 20:26:00,95.9,-19.5,29.90,ESE,112,4.7,4.7,1,0.00,,---,0.00,VWS V14.01,2013-06-19 02:26:00,
2013-06-18 20:31:00,114.5,-8.6,29.90,ESE,112,4.7,4.7,1,0.00,,---,0.00,VWS V14.01,2013-06-19 02:31:00,
2013-06-18 20:36:00,86.8,-24.9,29.90,ESE,112,4.7,4.7,1,0.00,,---,0.00,VWS V14.01,2013-06-19 02:36:00,
2013-06-18 20:41:00,86.0,37.6,29.90,ESE,112,4.7,4.7,18,0.00,,---,0.00,VWS V14.01,2013-06-19 02:41:00,
2013-06-18 20:46:00,85.5,37.2,29.90,ESE,112,4.7,4.7,18,0.00,,---,0.00,VWS V14.01,2013-06-19 02:46:00,
2013-06-18 20:51:00,85.1,38.2,29.90,ESE,112,4.7,4.7,19,0.00,,---,0.00,VWS V14.01,2013-06-19 02:51:00,
2013-06-18 20:56:00,85.1,38.2,29.90,ESE,112,4.7,4.7,19,0.00,,---,0.00,VWS V14.01,2013-06-19 02:56:00,
2013-06-18 21:01:00,85.3,41.0,29.90,ESE,112,4.7,4.7,21,0.00,,---,0.00,VWS V14.01,2013-06-19 03:01:00,
2013-06-18 21:06:00,85.0,41.9,29.91,ESE,112,4.7,4.7,22,0.00,,---,0.00,VWS V14.01,2013-06-19 03:06:00,
2013-06-18 21:11:00,84.8,41.8,29.91,ESE,112,4.7,4.7,22,0.00,,---,0.00,VWS V14.01,2013-06-19 03:11:00,
2013-06-18 21:16:00,84.6,42.8,29.91,ESE,112,4.7,4.7,23,0.00,,---,0.00,VWS V14.01,2013-06-19 03:16:00,
2013-06-18 21:21:00,84.2,42.4,29.91,ESE,112,4.7,4.7,23,0.00,,---,0.00,VWS V14.01,2013-06-19 03:21:00,
2013-06-18 21:26:00,84.1,42.3,29.91,ESE,112,4.7,4.7,23,0.00,,---,0.00,VWS V14.01,2013-06-19 03:26:00,
2013-06-18 21:31:00,83.9,42.2,29.90,ESE,112,4.7,4.7,23,0.00,,---,0.00,VWS V14.01,2013-06-19 03:31:00,
2013-06-18 21:36:00,133.6,2.4,29.91,ESE,112,4.7,4.7,1,0.00,,---,0.00,VWS V14.01,2013-06-19 03:36:00,
2013-06-18 21:41:00,133.6,2.4,29.91,ESE,112,4.7,4.7,1,0.00,,---,0.00,VWS V14.01,2013-06-19 03:41:00,
2013-06-18 21:46:00,133.6,2.4,29.91,ESE,112,4.7,4.7,1,0.00,,---,0.00,VWS V14.01,2013-06-19 03:46:00,
2013-06-18 21:51:00,133.6,2.4,29.91,ESE,112,4.7,4.7,1,0.00,,---,0.00,VWS V14.01,2013-06-19 03:51:00,
2013-06-18 21:56:00,83.3,39.3,29.91,ESE,112,4.7,4.7,21,0.00,,---,0.00,VWS V14.01,2013-06-19 03:56:00,
2013-06-18 22:01:00,82.8,41.3,29.91,ESE,112,4.7,4.7,23,0.00,,---,0.00,VWS V14.01,2013-06-19 04:01:00,
2013-06-18 22:06:00,82.6,42.2,29.91,ESE,112,4.7,4.7,24,0.00,,---,0.00,VWS V14.01,2013-06-19 04:06:00,
2013-06-18 22:11:00,82.4,42.0,29.91,ESE,112,4.7,4.7,24,0.00,,---,0.00,VWS V14.01,2013-06-19 04:11:00,
2013-06-18 22:16:00,82.3,41.9,29.91,ESE,112,4.7,4.7,24,0.00,,---,0.00,VWS V14.01,2013-06-19 04:16:00,
2013-06-18 22:21:00,82.3,41.9,29.91,ESE,112,4.7,4.7,24,0.00,,---,0.00,VWS V14.01,2013-06-19 04:21:00,
2013-06-18 22:26:00,82.1,40.7,29.91,ESE,112,4.7,4.7,23,0.00,,---,0.00,VWS V14.01,2013-06-19 04:26:00,
2013-06-18 22:31:00,81.7,40.3,29.91,ESE,112,4.7,4.7,23,0.00,,---,0.00,VWS V14.01,2013-06-19 04:31:00,
2013-06-18 22:36:00,81.9,40.5,29.91,ESE,112,4.7,4.7,23,0.00,,---,0.00,VWS V14.01,2013-06-19 04:36:00,
2013-06-18 22:41:00,82.1,40.7,29.91,ESE,112,4.7,4.7,23,0.00,,---,0.00,VWS V14.01,2013-06-19 04:41:00,
2013-06-18 22:46:00,82.1,40.7,29.91,ESE,112,4.7,4.7,23,0.00,,---,0.00,VWS V14.01,2013-06-19 04:46:00,
2013-06-18 22:51:00,81.9,40.5,29.91,ESE,112,4.7,4.7,23,0.00,,---,0.00,VWS V14.01,2013-06-19 04:51:00,
2013-06-18 22:56:00,25.0,40.5,29.91,ESE,112,4.7,4.7,1,0.00,,---,0.00,VWS V14.01,2013-06-19 04:56:00,
2013-06-18 23:01:00,25.0,40.5,29.91,ESE,112,4.7,4.7,1,0.00,,---,0.00,VWS V14.01,2013-06-19 05:01:00,
2013-06-18 23:06:00,25.0,40.5,29.91,ESE,112,4.7,4.7,1,0.00,,---,0.00,VWS V14.01,2013-06-19 05:06:00,
2013-06-18 23:11:00,82.3,15.2,29.91,ESE,112,4.7,4.7,8,0.00,,---,0.00,VWS V14.01,2013-06-19 05:11:00,
2013-06-18 23:16:00,82.1,38.3,29.90,ESE,112,4.7,4.7,21,0.00,,---,0.00,VWS V14.01,2013-06-19 05:16:00,
2013-06-18 23:21:00,82.1,39.5,29.90,ESE,112,4.7,4.7,22,0.00,,---,0.00,VWS V14.01,2013-06-19 05:21:00,
2013-06-18 23:26:00,81.9,39.4,29.90,ESE,112,4.7,4.7,22,0.00,,---,0.00,VWS V14.01,2013-06-19 05:26:00,
2013-06-18 23:31:00,81.4,40.1,29.90,ESE,112,4.7,4.7,23,0.00,,---,0.00,VWS V14.01,2013-06-19 05:31:00,
2013-06-18 23:36:00,81.0,39.8,29.90,ESE,112,4.7,4.7,23,0.00,,---,0.00,VWS V14.01,2013-06-19 05:36:00,
2013-06-18 23:41:00,80.6,40.5,29.90,ESE,112,4.7,4.7,24,0.00,,---,0.00,VWS V14.01,2013-06-19 05:41:00,
2013-06-18 23:46:00,80.3,41.3,29.90,ESE,112,4.7,4.7,25,0.00,,---,0.00,VWS V14.01,2013-06-19 05:46:00,
2013-06-18 23:51:00,79.9,41.0,29.90,ESE,112,4.7,4.7,25,0.00,,---,0.00,VWS V14.01,2013-06-19 05:51:00,
2013-06-18 23:56:00,79.6,40.7,29.90,ESE,112,4.7,4.7,25,0.00,,---,0.00,VWS V14.01,2013-06-19 05:56:00,